Location: Anjeux
(47.8815°N, 6.2076°E)
Time: 07:19:55
(UTC+00:00)

ARIANE 5 R/B - Pass Details

Date: 05 March 2021
Orbit: 749 x 794 km, 98.7° (Epoch: 18 April)

Event Time Altitude Azimuth Distance (km) Brightness Sun altitude
Rises 03:57:51 0° 5° (N) 3,218 6.0 -22.5°
Reaches altitude 10° 04:00:27 10° 353° (N) 2,294 5.1 -22.1°
Enters shadow 04:03:38 25° 316° (NW) 1,523 3.8 -21.5°
